Tracking 34717 objects as of 14-Jul-2026
HD Live streaming from Space Station
objects crossing your sky now

STARLINK-1777

Track STARLINK-1777 now!
10-day predictions
STARLINK-1777 is classified as:


NORAD ID: 47122
Int'l Code: 2020-088A
Perigee: 345.3 km
Apogee: 349.8 km
Inclination: 53.0 °
Period: 91.3 minutes
Semi major axis: 6718 km
RCS: Unknown
Launch date: November 25, 2020
Source: United States (US)
Launch site: AIR FORCE EASTERN TEST RANGE (AFETR)
Your satellite tracking list
Your tracking list is empty




NASA's NSSDC Master Catalog

Two Line Element Set (TLE):
1 47122U 20088A   26194.79849412  .00075204  00000-0  46395-3 0  9998
2 47122  53.0443  25.7192 0003362 275.4866  84.5770 15.76498624311823
Source of the keplerian elements: AFSPC